Location: Poigny-la-Forêt
(48.6876°N, 1.7701°E)
Time: 17:00:24
(UTC+02:00)

ISS - Pass Details

Date: 26 May 2019
Orbit: 407 x 419 km, 51.6° (Epoch: 26 June)

Event Time Altitude Azimuth Distance (km) Brightness Sun altitude
Rises 00:54:33 0° 291° (WNW) 2,364 0.5 -19.2°
Reaches altitude 10° 00:56:39 10° 290° (WNW) 1,500 -0.5 -19.3°
Maximum altitude 01:00:01 83° 205° (SSW) 428 -3.9 -19.4°
Enters shadow 01:00:05 82° 177° (S) 428 -3.9 -19.4°
